Skip Page Navigation
NASA JPL Caltech
NASA Logo - Jet Propulsion Laboratory + View the NASA Portal
+ Center for Near-Earth Object Studies
JPL Home Earth Solar System Stars & Galaxies Technology
JPL Solar System Dynamics
BODIES ORBITS EPHEMERIDES TOOLS PHYSICAL DATA DISCOVERY FAQ SITE MAP
JPL Small-Body Database Browser
Search: [ help ]  
100568 (1997 GV37)
Classification: Main-belt Asteroid          SPK-ID: 2100568
Ephemeris | Orbit Diagram | Orbital Elements | Mission Design | Physical Parameters | Discovery Circumstances | Close-Approach Data ]

[ show orbit diagram ]
Orbital Elements at Epoch 2459000.5 (2020-May-31.0) TDB
Reference: JPL 16 (heliocentric ecliptic J2000)
 Element Value Uncertainty (1-sigma)   Units 
e .1696473611742332 5.9355e-08  
a 2.346793075560537 1.2285e-08 au
q 1.948665823069729 1.3584e-07 au
i 2.500968502645754 6.1914e-06 deg
node 28.48270890853934 9.7714e-05 deg
peri 170.3775550157084 9.8618e-05 deg
M 155.9248215413791 1.3907e-05 deg
tp 2458431.747421033002
(2018-Nov-09.24742103)
4.8691e-05 TDB
period 1313.138770364299
3.60
1.0311e-05
2.823e-08
d
yr
n .2741522892512925 2.1526e-09 deg/d
Q 2.744920328051345 1.4369e-08 au
  Orbit Determination Parameters
   # obs. used (total)      451  
   data-arc span      10610 days (29.05 yr)  
   first obs. used      1991-10-06  
   last obs. used      2020-10-23  
   planetary ephem.      DE431  
   SB-pert. ephem.      SB431-N16  
   condition code      0  
   norm. resid. RMS      .56334  
   source      ORB  
   producer      Otto Matic  
   solution date      2020-Nov-12 20:05:29  

Additional Information
 Earth MOID = .946466 au 
 Jupiter MOID = 2.21129 au 
 T_jup = 3.540 
[ hide covariance matrix ]
Orbital Elements at Epoch 2456825.5 (2014-Jun-17.0) TDB
Reference: JPL 16 (heliocentric ecliptic J2000)
 Element Value Uncertainty (1-sigma)   Units 
e .1694715744710616 5.9443e-08  
q 1.950027400373851 1.3622e-07 au
tp 2457117.519128911221
(2015-Apr-05.01912891)
4.5404e-05 TDB
node 28.55483059299833 9.7653e-05 deg
peri 170.3138768258043 9.8555e-05 deg
i 2.501820060998584 6.1912e-06 deg
  Orbit Determination Parameters
   # obs. used (total)      451  
   data-arc span      10610 days (29.05 yr)  
   first obs. used      1991-10-06  
   last obs. used      2020-10-23  
   planetary ephem.      DE431  
   SB-pert. ephem.      SB431-N16  
   condition code      0  
   norm. resid. RMS      .56334  
   source      ORB  
   producer      Otto Matic  
   solution date      2020-Nov-12 20:05:29  

Additional Information
 Jupiter MOID = 2.21129 au 
 T_jup = 3.540 
Orbit Covariance (6×6)
  e q tp node peri i
e 3.533507995837099E-15 -8.0776881009529E-15 2.929819931613222E-13 1.831042966972637E-14 6.690676738889879E-14 -1.0210351005192E-15
q -8.0776881009529E-15 1.855597646964939E-14 -5.834492287433365E-13 -4.173361235040424E-14 -1.369028146540751E-13 2.309160384859892E-15
tp 2.929819931613222E-13 -5.834492287433365E-13 2.061552652878124E-9 2.055928223201778E-12 6.144470648790686E-10 4.484849105410988E-13
node 1.831042966972637E-14 -4.173361235040424E-14 2.055928223201778E-12 9.536151116108572E-9 -9.525370871572977E-9 -5.083430384935936E-11
peri 6.690676738889879E-14 -1.369028146540751E-13 6.144470648790686E-10 -9.525370871572977E-9 9.713162663315491E-9 5.091554717313213E-11
i -1.0210351005192E-15 2.309160384859892E-15 4.484849105410988E-13 -5.083430384935936E-11 5.091554717313213E-11 3.833092865615197E-11

Ephemeris | Orbit Diagram | Orbital Elements | Mission Design | Physical Parameters | Discovery Circumstances | Close-Approach Data ]

Physical Parameter Table
Parameter Symbol Value Units Sigma Reference Notes
absolute magnitude H 16.6   n/a MPO390417  

100568 (1997 GV37)          Discovered 1997-Apr-05 by NEAT at Haleakala
Reference: 20051019/Numbers.arcLast Updated: 2005-10-26

[ show close-approach data ]
Alternate Designations
 1997 GV37 = 2004 CP54 
Ephemeris | Orbit Diagram | Orbital Elements | Mission Design | Physical Parameters | Discovery Circumstances | Close-Approach Data ]
ABOUT SSD CREDITS/AWARDS PRIVACY/COPYRIGHT GLOSSARY LINKS
FirstGov 2020-Nov-27 01:37 UT
(server date/time)  
NASA Home Page
Site Manager:   Ryan S. Park
Webmaster  Alan B. Chamberlin